Location: Ch�risy
(50.2331°N, 2.9131°E)
Time: 03:16:49
(UTC+00:00)

CZ-4C R/B - Pass Details

Date: 17 January 2021
Orbit: 407 x 488 km, 97.7° (Epoch: 24 February)

Event Time Altitude Azimuth Distance (km) Brightness Sun altitude
Rises 17:09:46 0° 12° (NNE) 2,361 6.2 -8.3°
Reaches altitude 10° 17:11:46 10° 12° (NNE) 1,488 5.2 -8.6°
Maximum altitude 17:14:56 81° 285° (WNW) 421 2.8 -9.0°
Drops below altitude 10° 17:18:04 10° 198° (SSW) 1,472 6.1 -9.5°
Sets 17:20:03 0° 197° (SSW) 2,331 7.1 -9.8°
